{"data":{"norad_id":42921,"intl_designator":"2017-050A","name":"ORS-5 SENSORSAT","alt_names":[],"object_type":"PAYLOAD","status":"ACTIVE","operator":null,"country":"US","launch_date":"2017-08-26","launch_site_code":"AFETR","launch_vehicle":null,"mission":null,"orbit_class":"UNKNOWN","rcs_meters":null,"size_class":null,"mass_kg":null,"dimensions":null,"purposes":[],"wikipedia_slug":null,"has_3d_model":false,"image_url":null,"decayed_at":null,"tle_current":{"epoch":"2026-09-19T20:54:15.957792Z","epoch_age_seconds":102807,"freshness":"FRESH","line1":"1 42921U 17050A   26262.87101803  .00002099  00000+0  95695-4 0  9994","line2":"2 42921   0.0475 159.4411 0010354  35.8436 164.6840 15.01164079495273","mean_motion":15.01164079,"eccentricity":0.0010354,"inclination_deg":0.0475,"raan_deg":159.4411,"arg_perigee_deg":35.8436,"mean_anomaly_deg":164.684,"bstar":9.5695e-5,"rev_number":49527,"period_min":95.925556715909,"perigee_km":556.11835708317,"apogee_km":570.49269626741,"semimajor_km":6941.4425266753,"source":"CELESTRAK","updated_at":"2026-09-20T09:00:14.250599Z"}}}